Hourly Weather Goiania

Today, 7 May, Friday

Time Temperature Precipitation Wind Pressure Humidity
00:00 +18°C° 0 mm 0 mps 700 mmHg 64%
01:00 +18°C° 0 mm 0 mps 700 mmHg 64%
02:00 +18°C° 0 mm 0 mps 699 mmHg 65%
03:00 +17°C° 0 mm 0 mps 699 mmHg 66%
04:00 +17°C° 0 mm 0 mps 699 mmHg 66%
05:00 +17°C° 0 mm 0 mps 699 mmHg 66%
06:00 +17°C° 0 mm 0 mps 699 mmHg 66%
07:00 +21°C° 0 mm 1 mps 700 mmHg 60%
08:00 +22°C° 0 mm 1 mps 701 mmHg 54%
09:00 +24°C° 0 mm 2 mps 701 mmHg 48%
10:00 +26°C° 0 mm 2 mps 701 mmHg 43%
11:00 +28°C° 0 mm 1 mps 701 mmHg 38%
12:00 +30°C° 0 mm 1 mps 701 mmHg 34%
13:00 +30°C° 0 mm 1 mps 701 mmHg 33%
14:00 +30°C° 0 mm 1 mps 700 mmHg 32%
15:00 +31°C° 0 mm 1 mps 700 mmHg 32%
16:00 +29°C° 0 mm 1 mps 700 mmHg 37%
17:00 +27°C° 0 mm 1 mps 700 mmHg 43%
18:00 +24°C° 0 mm 1 mps 699 mmHg 48%
19:00 +24°C° 0 mm 1 mps 700 mmHg 49%
20:00 +23°C° 0 mm 1 mps 700 mmHg 51%
21:00 +22°C° 0 mm 1 mps 700 mmHg 52%
22:00 +21°C° 0 mm 1 mps 700 mmHg 52%
23:00 +21°C° 0 mm 1 mps 700 mmHg 53%

Tomorrow, 8 May, Saturday

Time Temperature Precipitation Wind Pressure Humidity
00:00 +20°C° 0 mm 1 mps 700 mmHg 54%
01:00 +20°C° 0 mm 1 mps 700 mmHg 56%
02:00 +19°C° 0 mm 1 mps 700 mmHg 57%
03:00 +18°C° 0 mm 1 mps 700 mmHg 59%
04:00 +18°C° 0 mm 1 mps 700 mmHg 60%
05:00 +18°C° 0 mm 1 mps 700 mmHg 61%
06:00 +16°C° 0 mm 1 mps 700 mmHg 63%
07:00 +20°C° 0 mm 1 mps 701 mmHg 57%
08:00 +21°C° 0 mm 2 mps 702 mmHg 51%
09:00 +25°C° 0 mm 2 mps 702 mmHg 46%
10:00 +27°C° 0 mm 2 mps 702 mmHg 42%
11:00 +29°C° 0 mm 2 mps 702 mmHg 37%
12:00 +31°C° 0 mm 2 mps 702 mmHg 33%
13:00 +31°C° 0 mm 2 mps 702 mmHg 33%
14:00 +32°C° 0 mm 2 mps 701 mmHg 32%
15:00 +32°C° 0 mm 2 mps 701 mmHg 32%
16:00 +30°C° 0 mm 2 mps 701 mmHg 37%
17:00 +28°C° 0 mm 2 mps 700 mmHg 42%
18:00 +26°C° 0 mm 1 mps 700 mmHg 47%
19:00 +25°C° 0 mm 1 mps 700 mmHg 49%
20:00 +24°C° 0 mm 1 mps 701 mmHg 50%
21:00 +23°C° 0 mm 1 mps 701 mmHg 52%
22:00 +23°C° 0 mm 1 mps 701 mmHg 53%
23:00 +22°C° 0 mm 1 mps 701 mmHg 54%

Day after tomorrow, 9 May, Sunday

Time Temperature Precipitation Wind Pressure Humidity
00:00 +22°C° 0 mm 1 mps 701 mmHg 55%
01:00 +21°C° 0 mm 1 mps 700 mmHg 55%
02:00 +21°C° 0 mm 1 mps 700 mmHg 56%
03:00 +18°C° 0 mm 0 mps 700 mmHg 56%
04:00 +20°C° 0 mm 1 mps 700 mmHg 57%
05:00 +20°C° 0 mm 1 mps 700 mmHg 57%
06:00 +20°C° 0 mm 1 mps 700 mmHg 57%
07:00 +21°C° 0 mm 2 mps 701 mmHg 57%
08:00 +24°C° 0 mm 3 mps 702 mmHg 56%
09:00 +26°C° 0 mm 4 mps 702 mmHg 55%
10:00 +28°C° 0 mm 4 mps 702 mmHg 51%
11:00 +30°C° 0 mm 4 mps 702 mmHg 46%
12:00 +32°C° 0 mm 4 mps 702 mmHg 41%
13:00 +33°C° 0 mm 3 mps 702 mmHg 39%
14:00 +32°C° 0 mm 2 mps 701 mmHg 37%
15:00 +32°C° 0 mm 2 mps 701 mmHg 34%
16:00 +31°C° 0 mm 2 mps 701 mmHg 39%
17:00 +29°C° 0 mm 2 mps 700 mmHg 43%
18:00 +27°C° 0 mm 2 mps 700 mmHg 48%
19:00 +26°C° 0 mm 2 mps 701 mmHg 50%
20:00 +26°C° 0 mm 2 mps 701 mmHg 51%
21:00 +25°C° 0 mm 3 mps 701 mmHg 53%
22:00 +24°C° 0 mm 2 mps 701 mmHg 55%
23:00 +24°C° 0 mm 2 mps 701 mmHg 58%

10 May, Monday

Time Temperature Precipitation Wind Pressure Humidity
00:00 +23°C° 0 mm 2 mps 701 mmHg 60%
01:00 +23°C° 0 mm 2 mps 700 mmHg 61%
02:00 +21°C° 0 mm 2 mps 700 mmHg 61%
03:00 +21°C° 0 mm 2 mps 700 mmHg 62%
04:00 +20°C° 0 mm 2 mps 700 mmHg 62%
05:00 +20°C° 0 mm 3 mps 700 mmHg 62%
06:00 +20°C° 0 mm 3 mps 700 mmHg 62%
07:00 +21°C° 0 mm 4 mps 701 mmHg 59%
08:00 +23°C° 0 mm 4 mps 702 mmHg 55%
09:00 +26°C° 0 mm 5 mps 702 mmHg 52%
10:00 +27°C° 0 mm 4 mps 702 mmHg 46%
11:00 +29°C° 0 mm 4 mps 702 mmHg 41%
12:00 +32°C° 0 mm 4 mps 702 mmHg 35%
13:00 +31°C° 0 mm 3 mps 702 mmHg 34%
14:00 +31°C° 0 mm 3 mps 701 mmHg 33%
15:00 +33°C° 0 mm 3 mps 700 mmHg 32%
16:00 +29°C° 0 mm 3 mps 700 mmHg 37%
17:00 +27°C° 0 mm 2 mps 700 mmHg 43%
18:00 +25°C° 0 mm 2 mps 700 mmHg 48%
19:00 +24°C° 0 mm 2 mps 700 mmHg 51%
20:00 +23°C° 0 mm 2 mps 700 mmHg 53%
21:00 +21°C° 0 mm 2 mps 700 mmHg 55%
22:00 +21°C° 0 mm 2 mps 700 mmHg 57%
23:00 +20°C° 0 mm 2 mps 700 mmHg 59%

11 May, Tuesday

Time Temperature Precipitation Wind Pressure Humidity
00:00 +20°C° 0 mm 2 mps 700 mmHg 61%
01:00 +19°C° 0 mm 2 mps 700 mmHg 61%
02:00 +19°C° 0 mm 2 mps 699 mmHg 61%
03:00 +18°C° 0 mm 2 mps 699 mmHg 62%
04:00 +18°C° 0 mm 2 mps 699 mmHg 62%
05:00 +18°C° 0 mm 2 mps 699 mmHg 63%
06:00 +17°C° 0 mm 2 mps 699 mmHg 63%
07:00 +20°C° 0 mm 3 mps 700 mmHg 58%
08:00 +22°C° 0 mm 3 mps 701 mmHg 54%
09:00 +25°C° 0 mm 4 mps 702 mmHg 49%
10:00 +27°C° 0 mm 3 mps 702 mmHg 43%
11:00 +28°C° 0 mm 3 mps 701 mmHg 38%
12:00 +30°C° 0 mm 3 mps 701 mmHg 32%
13:00 +31°C° 0 mm 2 mps 701 mmHg 31%
14:00 +31°C° 0 mm 2 mps 700 mmHg 29%
15:00 +31°C° 0 mm 2 mps 699 mmHg 28%
16:00 +29°C° 0 mm 2 mps 699 mmHg 34%
17:00 +27°C° 0 mm 1 mps 699 mmHg 39%
18:00 +25°C° 0 mm 1 mps 698 mmHg 45%
19:00 +24°C° 0 mm 1 mps 699 mmHg 48%
20:00 +23°C° 0 mm 1 mps 699 mmHg 50%
21:00 +22°C° 0 mm 1 mps 699 mmHg 53%
22:00 +21°C° 0 mm 1 mps 699 mmHg 55%
23:00 +20°C° 0 mm 2 mps 699 mmHg 57%

12 May, Wednesday

Time Temperature Precipitation Wind Pressure Humidity
00:00 +19°C° 0 mm 2 mps 699 mmHg 59%
01:00 +19°C° 0 mm 2 mps 699 mmHg 61%
02:00 +19°C° 0 mm 2 mps 699 mmHg 62%
03:00 +19°C° 0 mm 2 mps 698 mmHg 63%
04:00 +18°C° 0 mm 2 mps 698 mmHg 62%
05:00 +18°C° 0 mm 2 mps 699 mmHg 62%
06:00 +19°C° 0 mm 1 mps 699 mmHg 62%
07:00 +20°C° 0 mm 2 mps 700 mmHg 57%
08:00 +23°C° 0 mm 2 mps 700 mmHg 52%
09:00 +25°C° 0 mm 2 mps 701 mmHg 47%
10:00 +27°C° 0 mm 2 mps 701 mmHg 41%
11:00 +29°C° 0 mm 2 mps 701 mmHg 35%
12:00 +31°C° 0 mm 2 mps 701 mmHg 30%
13:00 +31°C° 0 mm 2 mps 700 mmHg 29%
14:00 +31°C° 0 mm 2 mps 700 mmHg 29%
15:00 +31°C° 0 mm 2 mps 699 mmHg 29%
16:00 +29°C° 0 mm 1 mps 699 mmHg 35%
17:00 +27°C° 0 mm 1 mps 699 mmHg 41%
18:00 +24°C° 0 mm 1 mps 699 mmHg 47%
19:00 +24°C° 0 mm 1 mps 699 mmHg 48%
20:00 +23°C° 0 mm 1 mps 699 mmHg 50%
21:00 +22°C° 0 mm 1 mps 700 mmHg 51%
22:00 +22°C° 0 mm 1 mps 700 mmHg 51%
23:00 +21°C° 0 mm 1 mps 700 mmHg 51%
Show more